LOT49H EPWA-ESGG

Flight info

Callsign LOT49H
Flight time N/A
Altitude 38000
Route OLILA L621 SOMOR DCT LARMA DCT NILEN L617 ARQUS
Aircraft E195/M-SDE3GILORVW/S

Departure

Time 2026-04-30 19:57
Airport Warsaw Chopin Airport (EPWA)

Arrival

Time N/A
Airport Göteborg Landvetter Airport (ESGG)
Time Latitude Longitude Altitude Speed Heading
2026-04-30 19:26 52.17950 20.95996 337 ft 0 kts 149°
2026-04-30 19:46 52.17957 20.95988 333 ft 4 kts 160°
2026-04-30 19:46 52.17980 20.95988 332 ft 4 kts 217°
2026-04-30 19:47 52.17997 20.96018 333 ft 2 kts 240°
2026-04-30 19:47 52.17998 20.96021 333 ft 0 kts 240°
2026-04-30 19:50 52.17998 20.96020 333 ft 0 kts 240°
2026-04-30 19:50 52.17995 20.96011 333 ft 1 kts 240°
2026-04-30 19:51 52.17988 20.95991 334 ft 3 kts 240°
2026-04-30 19:51 52.17973 20.95949 337 ft 5 kts 239°
2026-04-30 19:51 52.17935 20.95924 335 ft 8 kts 174°
2026-04-30 19:51 52.17873 20.95976 337 ft 14 kts 151°
2026-04-30 19:52 52.17771 20.96064 335 ft 19 kts 152°
2026-04-30 19:52 52.17645 20.96173 338 ft 22 kts 152°
2026-04-30 19:52 52.17502 20.96299 338 ft 25 kts 152°
2026-04-30 19:52 52.17338 20.96441 335 ft 27 kts 152°
2026-04-30 19:53 52.17203 20.96565 337 ft 15 kts 149°
2026-04-30 19:53 52.17137 20.96618 336 ft 11 kts 158°
2026-04-30 19:53 52.17081 20.96663 337 ft 9 kts 152°
2026-04-30 19:53 52.17011 20.96727 337 ft 14 kts 150°
2026-04-30 19:54 52.16917 20.96814 336 ft 17 kts 151°
2026-04-30 19:54 52.16799 20.96917 336 ft 21 kts 152°
2026-04-30 19:54 52.16672 20.97037 334 ft 20 kts 131°
2026-04-30 19:54 52.16609 20.97247 336 ft 21 kts 115°
2026-04-30 19:55 52.16549 20.97462 336 ft 21 kts 114°
2026-04-30 19:55 52.16492 20.97667 337 ft 18 kts 114°
2026-04-30 19:55 52.16430 20.97805 337 ft 13 kts 172°
2026-04-30 19:55 52.16368 20.97770 336 ft 9 kts 205°
2026-04-30 19:56 52.16306 20.97723 335 ft 8 kts 208°
2026-04-30 19:56 52.16311 20.97654 337 ft 6 kts 293°
2026-04-30 19:56 52.16340 20.97551 334 ft 33 kts 294°
2026-04-30 19:56 52.16540 20.96837 335 ft 104 kts 294°
2026-04-30 19:57 52.16928 20.95447 374 ft 160 kts 294°
2026-04-30 19:57 52.17405 20.93728 1025 ft 170 kts 294°
2026-04-30 19:57 52.17869 20.91995 1951 ft 163 kts 295°
2026-04-30 19:57 52.18322 20.90236 2488 ft 175 kts 295°
2026-04-30 19:58 52.18807 20.88323 2986 ft 187 kts 295°
2026-04-30 19:58 52.19317 20.86384 3685 ft 189 kts 301°
2026-04-30 19:58 52.20295 20.84899 4023 ft 201 kts 339°
2026-04-30 19:58 52.21708 20.84745 4498 ft 210 kts
2026-04-30 19:59 52.23165 20.84598 5113 ft 215 kts 342°
2026-04-30 19:59 52.24614 20.83601 5421 ft 241 kts 336°
2026-04-30 19:59 52.27649 20.80743 7748 ft 260 kts 331°
2026-04-30 20:00 52.29185 20.79096 9047 ft 267 kts 330°
2026-04-30 20:00 52.30741 20.77390 10334 ft 272 kts 330°
2026-04-30 20:00 52.32359 20.75610 11245 ft 285 kts 330°
2026-04-30 20:00 52.34008 20.73772 12466 ft 289 kts 331°
2026-04-30 20:01 52.37587 20.69812 13915 ft 331 kts 331°
2026-04-30 20:01 52.39536 20.67632 14655 ft 347 kts 331°
2026-04-30 20:01 52.41566 20.65369 15408 ft 351 kts 331°
2026-04-30 20:02 52.45572 20.60880 16908 ft 350 kts 332°
2026-04-30 20:02 52.47591 20.58624 17697 ft 353 kts 332°
2026-04-30 20:03 52.51665 20.54058 19234 ft 356 kts 333°
2026-04-30 20:03 52.53707 20.51760 19963 ft 356 kts 333°
2026-04-30 20:03 52.55748 20.49468 20715 ft 355 kts 334°
2026-04-30 20:03 52.57781 20.47179 21473 ft 353 kts 334°
2026-04-30 20:04 52.59801 20.44899 22188 ft 352 kts 334°
2026-04-30 20:04 52.61827 20.42621 22861 ft 353 kts 334°
2026-04-30 20:04 52.63837 20.40354 23237 ft 362 kts 334°
2026-04-30 20:05 52.67810 20.34757 24049 ft 399 kts 312°
2026-04-30 20:05 52.68953 20.30438 24507 ft 427 kts 292°
2026-04-30 20:05 52.70108 20.22494 25289 ft 422 kts 303°
2026-04-30 20:06 52.70966 20.19662 25586 ft 413 kts 312°
2026-04-30 20:06 52.74010 20.13832 26378 ft 404 kts 322°
2026-04-30 20:06 52.75287 20.11498 26693 ft 407 kts 322°
2026-04-30 20:07 52.80849 20.01105 27966 ft 416 kts 322°
2026-04-30 20:07 52.85315 19.92681 28898 ft 422 kts 322°
2026-04-30 20:08 52.87250 19.89004 29271 ft 425 kts 322°
2026-04-30 20:08 52.89194 19.85300 29680 ft 427 kts 322°
2026-04-30 20:08 52.91132 19.81586 30227 ft 425 kts 322°
2026-04-30 20:08 52.93029 19.77816 30720 ft 427 kts 320°
2026-04-30 20:09 52.94249 19.75266 31019 ft 426 kts 319°
2026-04-30 20:09 52.96702 19.70117 31580 ft 424 kts 320°
2026-04-30 20:09 53.00352 19.62456 32293 ft 422 kts 319°
2026-04-30 20:10 53.05637 19.51541 33296 ft 419 kts 320°
2026-04-30 20:10 53.07464 19.47776 33630 ft 418 kts 320°
2026-04-30 20:11 53.11142 19.40331 34305 ft 415 kts 321°
2026-04-30 20:11 53.12994 19.36649 34577 ft 415 kts 320°
2026-04-30 20:11 53.14846 19.32971 34832 ft 414 kts 320°
2026-04-30 20:12 53.18565 19.25648 35355 ft 413 kts 320°
2026-04-30 20:12 53.20431 19.22015 35588 ft 412 kts 320°
2026-04-30 20:12 53.22315 19.18414 35847 ft 411 kts 320°
2026-04-30 20:13 53.24205 19.14828 36100 ft 411 kts 320°
2026-04-30 20:13 53.26094 19.11250 36350 ft 411 kts 320°
2026-04-30 20:13 53.27962 19.07726 36588 ft 410 kts 320°
2026-04-30 20:13 53.29857 19.04159 36824 ft 410 kts 320°
2026-04-30 20:14 53.31755 19.00600 37064 ft 410 kts 320°
2026-04-30 20:14 53.33656 18.97043 37289 ft 410 kts 320°
2026-04-30 20:14 53.35557 18.93495 37515 ft 409 kts 320°
2026-04-30 20:14 53.37459 18.89949 37736 ft 409 kts 320°
2026-04-30 20:15 53.39364 18.86408 37945 ft 409 kts 320°
2026-04-30 20:15 53.41276 18.82889 38157 ft 407 kts 321°
2026-04-30 20:15 53.43232 18.79469 38234 ft 405 kts 322°
2026-04-30 20:16 53.47157 18.72712 38231 ft 404 kts 322°
2026-04-30 20:16 53.51089 18.65938 38320 ft 406 kts 322°
2026-04-30 20:17 53.55029 18.59146 38363 ft 406 kts 322°
2026-04-30 20:17 53.58965 18.52370 38378 ft 405 kts 322°
2026-04-30 20:18 53.62899 18.45592 38362 ft 404 kts 322°
2026-04-30 20:18 53.66832 18.38845 38373 ft 403 kts 322°
2026-04-30 20:19 53.70757 18.32103 38376 ft 403 kts 322°
2026-04-30 20:19 53.74685 18.25350 38374 ft 402 kts 322°
2026-04-30 20:20 53.78581 18.18639 38376 ft 402 kts 322°
2026-04-30 20:20 53.82495 18.11892 38375 ft 402 kts 322°
2026-04-30 20:21 53.86438 18.05103 38382 ft 407 kts 322°
2026-04-30 20:21 53.90464 17.98245 38403 ft 414 kts 322°
2026-04-30 20:22 53.94560 17.91319 38404 ft 418 kts 322°
2026-04-30 20:22 53.98702 17.84342 38392 ft 420 kts 322°
2026-04-30 20:23 54.02862 17.77338 38388 ft 421 kts 322°
2026-04-30 20:23 54.07028 17.70317 38390 ft 421 kts 322°
2026-04-30 20:24 54.11176 17.63325 38379 ft 418 kts 322°
2026-04-30 20:24 54.15465 17.56836 38388 ft 413 kts 326°
2026-04-30 20:25 54.22022 17.47309 38383 ft 412 kts 326°
2026-04-30 20:26 54.28604 17.37747 38397 ft 415 kts 326°
2026-04-30 20:26 54.35246 17.28176 38400 ft 417 kts 327°
2026-04-30 20:27 54.44852 17.17597 38389 ft 407 kts 336°
2026-04-30 20:28 54.54721 17.08168 38386 ft 404 kts 336°